Simultaneous Nadir Overpasses (SNOs) Predictions

Prediction of SNOs between GOES-17 and FY3D Satellite Orbit:

Table of predicted SNOs for the next 14.0 days since TLE Epoch: 11/11/2023
Index Date Time (GOES-17) GOES-17 Lat,Lon FY3D Lat,Lon Distance(km) Time Diff (sec)
1 11/11/2023 09:02:32 0.00,-104.68 -0.56,-102.18 285.77 80
2 11/12/2023 21:24:55 -0.00,-104.65 -0.68,-107.56 331.51 80
3 11/13/2023 21:09:09 0.00,-104.65 0.37,-103.10 177.99 80
4 11/15/2023 09:31:25 0.00,-104.68 0.88,-108.44 429.35 80
5 11/16/2023 09:10:19 0.00,-104.68 -0.18,-103.98 79.83 80
6 11/18/2023 21:14:16 -0.01,-104.63 -0.05,-104.89 29.24 80
7 11/19/2023 20:58:30 -0.01,-104.63 0.95,-100.42 480.13 80
8 11/21/2023 09:20:45 0.01,-104.66 0.28,-105.77 126.97 80
9 11/22/2023 08:59:38 0.01,-104.66 -0.73,-101.30 382.42 80
10 11/23/2023 21:22:02 -0.01,-104.62 -0.49,-106.69 235.39 80
11 11/24/2023 21:06:15 -0.02,-104.62 0.53,-102.22 274.32 80
